timestamp,wind_dir_avg,wind_spd_avg,wind_spd_max_dir,wind_spd_gust,battery_voltage,lat,long
2021-10-30 00:04:00+00:00,46.0,9.93,41.0,11.05,12.57,47.59359,-54.27349
2021-10-30 00:14:00+00:00,52.0,9.5,55.0,10.35,12.57,47.59359,-54.27349
2021-10-30 00:24:00+00:00,51.0,8.94,48.0,10.21,12.57,47.59359,-54.27349
2021-10-30 00:34:00+00:00,54.0,8.98,53.0,9.98,12.57,47.59359,-54.27349
2021-10-30 00:44:00+00:00,51.0,10.24,48.0,11.23,12.57,47.59359,-54.27349
2021-10-30 00:54:00+00:00,53.0,9.35,48.0,10.79,12.57,47.59359,-54.27349
2021-10-30 01:04:00+00:00,51.0,9.67,51.0,11.8,12.57,47.59359,-54.27349
2021-10-30 01:14:00+00:00,48.0,10.69,50.0,12.08,12.57,47.59359,-54.27349
2021-10-30 01:24:00+00:00,46.0,9.82,40.0,11.71,12.57,47.59359,-54.27349
2021-10-30 01:34:00+00:00,50.0,9.44,48.0,10.93,12.57,47.59359,-54.27349
2021-10-30 01:44:00+00:00,48.0,10.75,50.0,13.25,12.57,47.59359,-54.27349
2021-10-30 01:54:00+00:00,54.0,9.84,53.0,10.95,12.57,47.59359,-54.27349
2021-10-30 02:04:00+00:00,57.0,9.95,54.0,11.51,12.57,47.59359,-54.27349
2021-10-30 02:14:00+00:00,59.0,10.18,55.0,11.89,12.57,47.59359,-54.27349
2021-10-30 02:24:00+00:00,52.0,10.39,53.0,12.02,12.57,47.59359,-54.27349
2021-10-30 02:34:00+00:00,43.0,8.97,41.0,10.41,12.57,47.59359,-54.27349
2021-10-30 02:44:00+00:00,48.0,8.63,44.0,10.1,12.57,47.59359,-54.27349
2021-10-30 02:54:00+00:00,41.0,9.33,35.0,10.4,12.57,47.59359,-54.27349
2021-10-30 03:04:00+00:00,49.0,8.33,47.0,9.34,12.57,47.59359,-54.27349
2021-10-30 03:14:00+00:00,43.0,8.94,45.0,10.99,12.49,47.59359,-54.27349
2021-10-30 03:24:00+00:00,52.0,8.18,52.0,9.15,12.49,47.59359,-54.27349
2021-10-30 03:34:00+00:00,48.0,8.78,48.0,10.5,12.49,47.59359,-54.27349
2021-10-30 03:44:00+00:00,45.0,9.26,35.0,10.77,12.49,47.59359,-54.27349
2021-10-30 03:54:00+00:00,49.0,9.64,50.0,11.38,12.49,47.59359,-54.27349
2021-10-30 04:04:00+00:00,51.0,8.16,43.0,9.54,12.49,47.59359,-54.27349
2021-10-30 04:14:00+00:00,54.0,7.39,48.0,8.61,12.49,47.59359,-54.27349
2021-10-30 04:24:00+00:00,50.0,8.63,45.0,9.53,12.49,47.59359,-54.27349
2021-10-30 04:34:00+00:00,41.0,7.54,41.0,8.95,12.49,47.59359,-54.27349
2021-10-30 04:44:00+00:00,52.0,8.16,47.0,9.16,12.49,47.59359,-54.27349
2021-10-30 04:54:00+00:00,49.0,7.46,49.0,8.41,12.49,47.59359,-54.27349
2021-10-30 05:04:00+00:00,50.0,8.35,45.0,9.48,12.49,47.59359,-54.27349
2021-10-30 05:14:00+00:00,42.0,7.7,47.0,9.14,12.49,47.59359,-54.27349
2021-10-30 05:24:00+00:00,56.0,6.82,59.0,8.36,12.49,47.59359,-54.27349
2021-10-30 05:34:00+00:00,33.0,8.02,30.0,9.01,12.49,47.59359,-54.27349
2021-10-30 05:44:00+00:00,40.0,6.39,42.0,7.76,12.49,47.59359,-54.27349
2021-10-30 05:54:00+00:00,45.0,7.26,46.0,8.33,12.49,47.59359,-54.27349
2021-10-30 06:04:00+00:00,46.0,7.88,44.0,8.75,12.49,47.59359,-54.27349
2021-10-30 06:14:00+00:00,34.0,8.17,38.0,9.07,12.49,47.59359,-54.27349
2021-10-30 06:24:00+00:00,31.0,8.06,26.0,8.85,12.49,47.59359,-54.27349
2021-10-30 06:34:00+00:00,30.0,8.16,33.0,9.62,12.49,47.59359,-54.27349
2021-10-30 06:44:00+00:00,34.0,7.69,30.0,8.88,12.49,47.59359,-54.27349
2021-10-30 06:54:00+00:00,34.0,9.0,36.0,10.33,12.49,47.59359,-54.27349
2021-10-30 07:04:00+00:00,35.0,8.8,36.0,10.21,12.49,47.59359,-54.27349
2021-10-30 07:14:00+00:00,33.0,9.23,33.0,10.23,12.49,47.59359,-54.27349
2021-10-30 07:24:00+00:00,22.0,7.67,16.0,8.56,12.49,47.59359,-54.27349
2021-10-30 07:34:00+00:00,33.0,7.18,44.0,8.58,12.49,47.59359,-54.27349
2021-10-30 07:44:00+00:00,36.0,7.86,39.0,9.19,12.49,47.59359,-54.27349
2021-10-30 07:54:00+00:00,31.0,6.76,28.0,8.22,12.49,47.59359,-54.27349
2021-10-30 08:04:00+00:00,33.0,7.29,39.0,8.26,12.49,47.59359,-54.27349
2021-10-30 08:14:00+00:00,28.0,6.77,30.0,7.93,12.41,47.59359,-54.27349
2021-10-30 08:24:00+00:00,43.0,6.36,44.0,7.57,12.41,47.59359,-54.27349
2021-10-30 08:34:00+00:00,41.0,7.05,42.0,8.22,12.41,47.59359,-54.27349
2021-10-30 08:44:00+00:00,45.0,6.64,48.0,7.49,12.41,47.59359,-54.27349
2021-10-30 08:54:00+00:00,42.0,5.82,43.0,6.88,12.41,47.59359,-54.27349
2021-10-30 09:04:00+00:00,43.0,5.7,42.0,7.03,12.41,47.59359,-54.27349
2021-10-30 09:14:00+00:00,40.0,6.33,48.0,7.22,12.41,47.59359,-54.27349
2021-10-30 09:24:00+00:00,36.0,6.19,38.0,7.24,12.41,47.59359,-54.27349
2021-10-30 09:34:00+00:00,39.0,6.14,39.0,7.76,12.41,47.59359,-54.27349
2021-10-30 09:44:00+00:00,37.0,6.31,35.0,7.33,12.41,47.59359,-54.27349
2021-10-30 09:54:00+00:00,34.0,6.03,26.0,6.82,12.41,47.59359,-54.27349
2021-10-30 10:04:00+00:00,32.0,5.68,26.0,6.73,12.41,47.59359,-54.27349
2021-10-30 10:14:01+00:00,32.0,5.95,32.0,7.53,12.41,47.59359,-54.27349
2021-10-30 10:24:01+00:00,18.0,4.68,18.0,5.3,12.41,47.59359,-54.27349
2021-10-30 10:34:01+00:00,21.0,4.11,37.0,5.29,12.41,47.59359,-54.27349
2021-10-30 10:44:01+00:00,9.0,3.93,7.0,4.89,12.41,47.59359,-54.27349
2021-10-30 10:54:01+00:00,19.0,3.74,29.0,4.73,12.41,47.59359,-54.27349
2021-10-30 11:04:01+00:00,10.0,3.9,12.0,4.83,12.41,47.59359,-54.27349
2021-10-30 11:14:00+00:00,20.0,4.13,29.0,4.64,13.92,47.59359,-54.27349
2021-10-30 11:24:00+00:00,22.0,4.04,26.0,4.86,13.92,47.59359,-54.27349
2021-10-30 11:34:00+00:00,9.0,4.39,12.0,5.03,13.92,47.59359,-54.27349
2021-10-30 11:44:00+00:00,349.0,4.68,342.0,5.44,13.92,47.59359,-54.27349
2021-10-30 11:54:00+00:00,358.0,4.43,357.0,5.3,13.92,47.59359,-54.27349
2021-10-30 12:04:00+00:00,7.0,3.94,4.0,5.38,13.92,47.59359,-54.27349
2021-10-30 12:14:01+00:00,8.0,3.96,11.0,4.64,14.32,47.59359,-54.27349
2021-10-30 12:24:01+00:00,14.0,3.47,11.0,4.3,14.32,47.59359,-54.27349
2021-10-30 12:34:01+00:00,9.0,3.48,12.0,4.14,14.32,47.59359,-54.27349
2021-10-30 12:44:01+00:00,11.0,3.19,19.0,4.01,14.32,47.59359,-54.27349
2021-10-30 12:54:01+00:00,18.0,3.07,12.0,3.69,14.32,47.59359,-54.27349
2021-10-30 13:04:01+00:00,18.0,4.32,11.0,4.93,14.32,47.59359,-54.27349
2021-10-30 13:14:01+00:00,10.0,3.91,13.0,4.82,14.32,47.59359,-54.27349
2021-10-30 13:24:01+00:00,10.0,4.28,17.0,4.93,14.32,47.59359,-54.27349
2021-10-30 13:34:01+00:00,40.0,5.7,46.0,6.66,14.32,47.59359,-54.27349
2021-10-30 13:44:01+00:00,52.0,6.43,49.0,7.27,14.32,47.59359,-54.27349
2021-10-30 13:54:01+00:00,52.0,6.45,51.0,6.96,14.32,47.59359,-54.27349
2021-10-30 14:04:01+00:00,51.0,6.13,51.0,7.37,14.32,47.59359,-54.27349
2021-10-30 14:14:00+00:00,48.0,5.41,46.0,6.07,13.76,47.59359,-54.27349
2021-10-30 14:24:00+00:00,46.0,5.09,48.0,6.45,13.76,47.59359,-54.27349
2021-10-30 14:34:00+00:00,42.0,6.07,44.0,6.84,13.76,47.59359,-54.27349
2021-10-30 14:44:00+00:00,50.0,5.19,54.0,5.81,13.76,47.59359,-54.27349
2021-10-30 14:54:00+00:00,42.0,5.0,52.0,5.84,13.76,47.59359,-54.27349
2021-10-30 15:04:00+00:00,46.0,4.46,54.0,5.42,13.76,47.59359,-54.27349
2021-10-30 15:14:01+00:00,40.0,4.43,47.0,4.91,13.6,47.59359,-54.27349
2021-10-30 15:24:01+00:00,43.0,4.29,49.0,5.32,13.6,47.59359,-54.27349
2021-10-30 15:34:01+00:00,48.0,4.66,49.0,5.13,13.6,47.59359,-54.27349
2021-10-30 15:44:01+00:00,51.0,4.46,46.0,5.16,13.6,47.59359,-54.27349
2021-10-30 15:54:01+00:00,47.0,4.21,45.0,4.8,13.6,47.59359,-54.27349
2021-10-30 16:04:01+00:00,43.0,5.0,40.0,5.32,13.6,47.59359,-54.27349
2021-10-30 16:14:01+00:00,45.0,4.7,41.0,5.38,13.68,47.59359,-54.27349
2021-10-30 16:24:01+00:00,46.0,4.87,44.0,5.42,13.68,47.59359,-54.27349
2021-10-30 16:34:01+00:00,41.0,4.19,41.0,4.78,13.68,47.59359,-54.27349
2021-10-30 16:44:01+00:00,38.0,4.02,40.0,4.78,13.68,47.59359,-54.27349
2021-10-30 16:54:01+00:00,36.0,4.54,35.0,4.84,13.68,47.59359,-54.27349
2021-10-30 17:04:01+00:00,36.0,4.23,36.0,4.64,13.68,47.59359,-54.27349
2021-10-30 17:14:01+00:00,39.0,4.14,38.0,4.51,14.32,47.59359,-54.27349
2021-10-30 17:24:01+00:00,37.0,4.18,40.0,4.64,14.32,47.59359,-54.27349
2021-10-30 17:34:01+00:00,40.0,3.29,39.0,3.74,14.32,47.59359,-54.27349
2021-10-30 17:44:01+00:00,33.0,3.04,34.0,3.3,14.32,47.59359,-54.27349
2021-10-30 17:54:01+00:00,35.0,3.48,36.0,3.87,14.32,47.59359,-54.27349
2021-10-30 18:04:01+00:00,40.0,3.59,43.0,4.03,14.32,47.59359,-54.27349
2021-10-30 18:14:00+00:00,26.0,2.8,23.0,3.14,14.32,47.59359,-54.27349
2021-10-30 18:24:00+00:00,47.0,3.53,50.0,3.92,14.32,47.59359,-54.27349
2021-10-30 18:34:00+00:00,40.0,3.61,39.0,3.8,14.32,47.59359,-54.27349
2021-10-30 18:44:00+00:00,37.0,3.3,39.0,3.58,14.32,47.59359,-54.27349
2021-10-30 18:54:00+00:00,52.0,3.01,50.0,3.22,14.32,47.59359,-54.27349
2021-10-30 19:04:00+00:00,61.0,2.56,62.0,2.8,14.32,47.59359,-54.27349
2021-10-30 19:14:00+00:00,44.0,3.09,44.0,3.28,13.84,47.59359,-54.27349
2021-10-30 19:24:00+00:00,45.0,3.64,46.0,3.76,13.84,47.59359,-54.27349
2021-10-30 19:34:00+00:00,44.0,2.29,47.0,2.54,13.84,47.59359,-54.27349
2021-10-30 19:44:00+00:00,51.0,0.92,43.0,1.45,13.84,47.59359,-54.27349
2021-10-30 19:54:00+00:00,53.0,2.14,60.0,2.45,13.84,47.59359,-54.27349
2021-10-30 20:04:00+00:00,58.0,2.08,54.0,2.37,13.84,47.59359,-54.27349
2021-10-30 20:14:00+00:00,34.0,0.75,48.0,1.21,13.76,47.59359,-54.27349
2021-10-30 20:24:00+00:00,66.0,1.47,69.0,1.63,13.76,47.59359,-54.27349
2021-10-30 20:34:00+00:00,75.0,0.85,61.0,1.13,13.76,47.59359,-54.27349
2021-10-30 20:44:00+00:00,81.0,2.83,80.0,3.32,13.76,47.59359,-54.27349
2021-10-30 20:54:00+00:00,86.0,1.96,89.0,2.77,13.76,47.59359,-54.27349
2021-10-30 21:04:00+00:00,90.0,0.6,92.0,0.83,13.76,47.59359,-54.27349
2021-10-30 21:14:01+00:00,54.0,1.56,57.0,2.03,12.89,47.59359,-54.27349
2021-10-30 21:24:01+00:00,15.0,1.38,18.0,1.7,12.89,47.59359,-54.27349
2021-10-30 21:34:01+00:00,23.0,1.04,29.0,1.43,12.89,47.59359,-54.27349
2021-10-30 21:44:01+00:00,51.0,2.15,60.0,2.36,12.89,47.59359,-54.27349
2021-10-30 21:54:01+00:00,59.0,1.62,59.0,1.91,12.89,47.59359,-54.27349
2021-10-30 22:04:01+00:00,340.0,2.61,341.0,2.81,12.89,47.59359,-54.27349
2021-10-30 22:14:00+00:00,351.0,2.24,352.0,2.47,12.65,47.59359,-54.27349
2021-10-30 22:24:00+00:00,12.0,2.08,3.0,2.51,12.65,47.59359,-54.27349
2021-10-30 22:34:00+00:00,40.0,1.68,38.0,1.85,12.65,47.59359,-54.27349
2021-10-30 22:44:00+00:00,40.0,3.19,43.0,3.4,12.65,47.59359,-54.27349
2021-10-30 22:54:00+00:00,24.0,2.98,32.0,3.23,12.65,47.59359,-54.27349
2021-10-30 23:04:00+00:00,5.0,3.25,356.0,3.5,12.65,47.59359,-54.27349
2021-10-30 23:14:00+00:00,354.0,2.42,358.0,2.63,12.65,47.59359,-54.27349
2021-10-30 23:24:00+00:00,356.0,3.13,359.0,3.48,12.65,47.59359,-54.27349
2021-10-30 23:34:00+00:00,25.0,3.46,26.0,3.67,12.65,47.59359,-54.27349
2021-10-30 23:44:00+00:00,21.0,3.73,24.0,4.25,12.65,47.59359,-54.27349
2021-10-30 23:54:00+00:00,3.0,3.33,358.0,3.84,12.65,47.59359,-54.27349
